321  
ASUS44 KSHV 200610  
RWRSHV  
 
WEATHER ROUNDUP FOR THE FOUR STATE AREA  
NATIONAL WEATHER SERVICE SHREVEPORT LA  
100 AM CDT SAT OCT 20 2018  
 
NOTE: "FAIR" INDICATES FEW OR NO CLOUDS BELOW 12000 FEET  
WITH NO SIGNIFICANT WEATHER AND/OR S TO VISIBILITY
.  
 
!LAZ001-LAZ014-TXZ097-200700  
SHREVEPORT...MONROE...TEXARKANA RADIOS  
 
CITY SKY/WX TMP DP RH WIND PRES REMARKS
 
SHREVEPORT LGT RAIN 62 62 100 CALM 30.10F FOG  
MONROE N/A 68 64 87 N5 30.11F  
NATCHITOCHES MOCLDY 67 65 93 NW3 30.11F  
TEXARKANA CLOUDY 57 57 100 NW9 30.14F  

 
 
!LAZ001-LAZ014-TXZ097-200700  
OTHER LOCATIONS...  
 
CITY SKY/WX TMP DP RH WIND PRES REMARKS
 
DOWNTOWN SHV LGT RAIN 63 62 97 CALM 30.11F  
BOSSIER CITY LGT RAIN 61 61 100 CALM N/A  
RUSTON LGT RAIN 64 62 92 NW5 30.15S  
LITTLE ROCK LGT RAIN 57 57 100 NW3 30.12F FOG  
EL DORADO LGT RAIN 61 60 97 N5 30.11F  
JACKSON N/A 68 65 90 CALM 30.09F  
NEW ORLEANS N/A 77 76 96 CALM 30.08F  
HOUSTON LGT RAIN 67 67 100 NW7 30.10S  
LUFKIN LGT RAIN 63 62 97 E5 30.11F  
TYLER CLOUDY 60 58 92 N8 30.13F  
DAL FT WORTH CLOUDY 59 58 96 CALM 30.15S  

 
 
!TXZ136-TXZ165-200700  
TYLER...LUFKIN RADIOS  
 
CITY SKY/WX TMP DP RH WIND PRES REMARKS
 
TYLER CLOUDY 60 58 92 N8 30.13F  
GILMER N/A 57 57 99 NW3 30.14F  
LONGVIEW LGT RAIN 61 61 100 NW5 30.12F  
LUFKIN LGT RAIN 63 62 97 E5 30.11F  

 
 
!TXZ136-TXZ165-200700  
OTHER LOCATIONS...  
 
CITY SKY/WX TMP DP RH WIND PRES REMARKS
 
NACOGDOCHES LGT RAIN 62 61 96 CALM 30.11F  
BEAUMONT N/A 77 74 90 CALM 30.06F  
HOUSTON LGT RAIN 67 67 100 NW7 30.10S  
COLLEGE STN CLOUDY 63 63 100 NW6 30.11F  
AUSTIN CLOUDY 63 61 93 N5 30.13F  
DAL FT WORTH CLOUDY 59 58 96 CALM 30.15S  
TEXARKANA CLOUDY 57 57 100 NW9 30.14F  
SHREVEPORT LGT RAIN 62 62 100 CALM 30.10F FOG  
FORT POLK LGT RAIN 70 68 94 N5 30.08F  
LAKE CHARLES N/A 76 75 97 CALM 30.07F  

 
 
 
CLICK HERE TO GO TO PREVIOUS BULLETINS.

The Nexlab LA Page
The Nexlab TX Page
The Nexlab AR Page
The Nexlab OK Page Main Text Page